This demonstration page uses our WeatherBlox Daily Observations layout. Learn more.

Left ArrowRight Arrow

Hourly Observations for October 5, 2021

Temp ( °F °C ) Dew Point ( °F °C ) Humidity (%) Winds ( mph kmh ) Pressure ( in mb ) Visibility ( mi km ) Precip ( " mm )
12:56 am 00:56 Clear 54 12.2 44 6.7 69 69 N N/A 30.16 1021 10 16 N/A
1:56 am 01:56 Clear 52 11.1 43 6.1 72 72 NNW 3 6 30.18 1022 10 16 N/A
2:56 am 02:56 Clear 49 9.4 43 6.1 80 80 NNW 3 6 30.18 1022 10 16 N/A
3:56 am 03:56 Clear 48 8.9 42 5.6 80 80 NW 5 7 30.18 1022 10 16 N/A
4:56 am 04:56 Clear 47 8.3 42 5.6 83 83 N N/A 30.17 1022 10 16 N/A
5:56 am 05:56 Clear 46 7.8 41 5 83 83 NW 7 11 30.19 1022 10 16 N/A
6:56 am 06:56 Clear 45 7.2 40 4.4 83 83 NW 5 7 30.21 1023 10 16 N/A
7:56 am 07:56 Sunny 44 6.7 39 3.9 83 83 NW 9 15 30.22 1024 10 16 N/A
8:53 am 08:53 Mostly Sunny 50 10 43 6 76 76 NW 5 7 30.25 1024 10 16 N/A
8:56 am 08:56 Sunny 50 10 43 6.1 77 77 NW 7 11 30.24 1024 10 16 N/A
9:56 am 09:56 Sunny 58 14.4 47 8.3 67 67 NW 5 7 30.24 1024 10 16 N/A
10:56 am 10:56 Sunny 66 18.9 48 8.9 52 52 NW 3 6 30.24 1024 10 16 N/A
11:56 am 11:56 Sunny 71 21.7 47 8.3 42 42 N N/A 30.23 1024 10 16 N/A
12:56 pm 12:56 Sunny 74 23.3 44 6.7 34 34 VRB 3 6 30.21 1023 10 16 N/A
1:56 pm 13:56 Sunny 76 24.4 42 5.6 30 30 N N/A 30.19 1022 10 16 N/A
2:56 pm 14:56 Sunny 77 25 40 4.4 26 26 SE 12 19 30.16 1021 10 16 N/A
3:56 pm 15:56 Sunny 78 25.6 42 5.6 28 28 SSE 10 17 30.14 1021 10 16 N/A
4:56 pm 16:56 Sunny 78 25.6 40 4.4 26 26 SE 10 17 30.14 1021 10 16 N/A
5:56 pm 17:56 Sunny 76 24.4 41 5 29 29 E 10 17 30.14 1021 10 16 N/A
6:56 pm 18:56 Sunny 70 21.1 43 6.1 38 38 ESE 6 9 30.14 1021 10 16 N/A
7:56 pm 19:56 Clear 64 17.8 44 6.7 48 48 ESE 6 9 30.16 1022 10 16 N/A
8:56 pm 20:56 Clear 62 16.7 43 6.1 50 50 ESE 7 11 30.16 1022 10 16 N/A
9:56 pm 21:56 Clear 56 13.3 44 6.7 65 65 ESE 7 11 30.17 1022 10 16 N/A
10:56 pm 22:56 Clear 54 12.2 44 6.7 69 69 SE 3 6 30.17 1022 10 16 N/A
11:56 pm 23:56 Clear 54 12.2 44 6.7 69 69 E 3 6 30.16 1021 10 16 N/A

Powered by AerisWeather